| time (UTC) | temp F | wind direction | speed knots | gust knots | rain 1hr in | rain 24hr in | rain mn in | humidity % | barometer mb |
| 20260506181002 | 53 | 182 | 1.7 | 2.6 | 0.00 | 0.00 | 0.00 | 89 | 1018.0 |
| 20260506180001 | 53 | 179 | 1.7 | 2.6 | 0.00 | 0.00 | 0.00 | 89 | 1018.0 |
| 20260506175002 | 53 | 180 | 2.6 | 5.2 | 0.00 | 0.00 | 0.00 | 89 | 1018.0 |
| 20260506174001 | 53 | 173 | 0.9 | 2.6 | 0.00 | 0.00 | 0.00 | 89 | 1018.0 |
| 20260506173001 | 53 | 170 | 4.3 | 6.1 | 0.00 | 0.00 | 0.00 | 89 | 1018.0 |
| 20260506172002 | 53 | 168 | 4.3 | 5.2 | 0.00 | 0.00 | 0.00 | 89 | 1018.0 |
| 20260506171001 | 54 | 162 | 4.3 | 5.2 | 0.00 | 0.00 | 0.00 | 88 | 1018.0 |
| 20260506170002 | 54 | 164 | 6.1 | 7.8 | 0.00 | 0.00 | 0.00 | 87 | 1018.0 |
| 20260506165001 | 55 | 164 | 8.7 | 9.6 | 0.00 | 0.00 | 0.00 | 86 | 1018.0 |
| 20260506164002 | 55 | 171 | 7.0 | 7.0 | 0.00 | 0.00 | 0.00 | 85 | 1018.0 |
| 20260506163001 | 55 | 174 | 6.1 | 7.8 | 0.00 | 0.00 | 0.00 | 84 | 1018.0 |
| 20260506162002 | 56 | 172 | 7.8 | 9.6 | 0.00 | 0.00 | 0.00 | 82 | 1018.0 |
| 20260506161001 | 56 | 170 | 5.2 | 7.8 | 0.00 | 0.00 | 0.00 | 81 | 1018.0 |
| 20260506160002 | 56 | 176 | 6.1 | 7.8 | 0.00 | 0.00 | 0.00 | 82 | 1018.0 |
| 20260506155001 | 56 | 178 | 9.6 | 12.2 | 0.00 | 0.00 | 0.00 | 81 | 1018.0 |
| 20260506154002 | 56 | 170 | 6.1 | 7.8 | 0.00 | 0.00 | 0.00 | 82 | 1018.0 |
| 20260506153001 | 56 | 171 | 9.6 | 10.4 | 0.00 | 0.00 | 0.00 | 81 | 1018.0 |
| 20260506152002 | 57 | 169 | 6.1 | 10.4 | 0.00 | 0.00 | 0.00 | 80 | 1018.0 |
| 20260506151001 | 57 | 172 | 10.4 | 10.4 | 0.00 | 0.00 | 0.00 | 79 | 1018.0 |
| 20260506150002 | 57 | 170 | 10.4 | 11.3 | 0.00 | 0.00 | 0.00 | 78 | 1018.0 |
| 20260506145001 | 57 | 167 | 7.0 | 8.7 | 0.00 | 0.00 | 0.00 | 77 | 1018.0 |
| 20260506144001 | 57 | 175 | 7.0 | 11.3 | 0.00 | 0.00 | 0.00 | 76 | 1018.0 |
| 20260506143002 | 57 | 185 | 10.4 | 13.0 | 0.00 | 0.00 | 0.00 | 76 | 1018.0 |
| 20260506142001 | 57 | 175 | 7.0 | 9.6 | 0.00 | 0.00 | 0.00 | 76 | 1018.0 |
| 20260506141002 | 57 | 172 | 10.4 | 10.4 | 0.00 | 0.00 | 0.00 | 73 | 1018.0 |
| 20260506140001 | 58 | 170 | 7.8 | 8.7 | 0.00 | 0.00 | 0.00 | 75 | 1018.0 |
| 20260506135002 | 58 | 175 | 7.8 | 10.4 | 0.00 | 0.00 | 0.00 | 74 | 1018.0 |
| 20260506134001 | 58 | 185 | 9.6 | 11.3 | 0.00 | 0.00 | 0.00 | 73 | 1018.0 |
| 20260506133002 | 58 | 175 | 12.2 | 13.0 | 0.00 | 0.00 | 0.00 | 71 | 1018.0 |
| 20260506132001 | 58 | 172 | 11.3 | 14.8 | 0.00 | 0.00 | 0.00 | 69 | 1019.0 |
| 20260506131002 | 58 | 165 | 9.6 | 10.4 | 0.00 | 0.00 | 0.00 | 72 | 1019.0 |
| 20260506130001 | 58 | 168 | 10.4 | 11.3 | 0.00 | 0.00 | 0.00 | 71 | 1019.0 |
| 20260506125002 | 59 | 170 | 8.7 | 10.4 | 0.00 | 0.00 | 0.00 | 72 | 1018.0 |
| 20260506124001 | 58 | 172 | 7.0 | 11.3 | 0.00 | 0.00 | 0.00 | 71 | 1018.0 |
| 20260506123002 | 59 | 172 | 5.2 | 7.0 | 0.00 | 0.00 | 0.00 | 70 | 1018.0 |
| 20260506122001 | 59 | 167 | 11.3 | 11.3 | 0.00 | 0.00 | 0.00 | 67 | 1019.0 |
| 20260506121002 | 59 | 174 | 12.2 | 12.2 | 0.00 | 0.00 | 0.00 | 66 | 1019.0 |
| 20260506120001 | 59 | 174 | 10.4 | 13.9 | 0.00 | 0.00 | 0.00 | 67 | 1019.0 |
| 20260506115002 | 59 | 178 | 13.0 | 13.9 | 0.00 | 0.00 | 0.00 | 68 | 1019.0 |
| 20260506114001 | 59 | 186 | 7.8 | 11.3 | 0.00 | 0.00 | 0.00 | 70 | 1019.0 |
| 20260506113002 | 59 | 172 | 8.7 | 10.4 | 0.00 | 0.00 | 0.00 | 70 | 1019.0 |
| 20260506112001 | 59 | 178 | 7.0 | 11.3 | 0.00 | 0.00 | 0.00 | 69 | 1019.0 |
| 20260506111002 | 58 | 176 | 7.8 | 12.2 | 0.00 | 0.00 | 0.00 | 68 | 1019.0 |
| 20260506110001 | 58 | 170 | 13.0 | 13.9 | 0.00 | 0.00 | 0.00 | 67 | 1019.0 |
| 20260506105002 | 58 | 173 | 10.4 | 13.0 | 0.00 | 0.00 | 0.00 | 71 | 1019.0 |
| 20260506104001 | 58 | 178 | 11.3 | 12.2 | 0.00 | 0.00 | 0.00 | 72 | 1019.0 |
| 20260506103002 | 59 | 170 | 12.2 | 13.0 | 0.00 | 0.00 | 0.00 | 66 | 1019.0 |
| 20260506102001 | 58 | 172 | 11.3 | 13.0 | 0.00 | 0.00 | 0.00 | 67 | 1019.0 |
| 20260506101002 | 58 | 176 | 7.8 | 11.3 | 0.00 | 0.00 | 0.00 | 69 | 1019.0 |
| 20260506100002 | 58 | 167 | 10.4 | 12.2 | 0.00 | 0.00 | 0.00 | 70 | 1019.0 |
| 20260506095002 | 59 | 173 | 10.4 | 13.0 | 0.00 | 0.00 | 0.00 | 67 | 1019.0 |
| 20260506094001 | 58 | 168 | 13.9 | 14.8 | 0.00 | 0.00 | 0.00 | 67 | 1019.0 |
| 20260506093001 | 59 | 167 | 8.7 | 11.3 | 0.00 | 0.00 | 0.00 | 69 | 1019.0 |
| 20260506092002 | 59 | 169 | 7.0 | 12.2 | 0.00 | 0.00 | 0.00 | 72 | 1019.0 |
| 20260506091001 | 58 | 169 | 13.0 | 13.0 | 0.00 | 0.00 | 0.00 | 72 | 1019.0 |
| 20260506090002 | 58 | 188 | 7.8 | 9.6 | 0.00 | 0.00 | 0.00 | 72 | 1019.0 |
| 20260506085002 | 58 | 177 | 7.8 | 13.0 | 0.00 | 0.00 | 0.00 | 71 | 1019.0 |
| 20260506084001 | 57 | 169 | 9.6 | 12.2 | 0.00 | 0.00 | 0.00 | 74 | 1019.0 |
| 20260506083002 | 57 | 171 | 11.3 | 11.3 | 0.00 | 0.00 | 0.00 | 76 | 1019.0 |
| 20260506082001 | 57 | 174 | 7.0 | 11.3 | 0.00 | 0.00 | 0.00 | 75 | 1019.0 |
| 20260506081002 | 57 | 173 | 6.1 | 11.3 | 0.00 | 0.00 | 0.00 | 79 | 1019.0 |
| 20260506073002 | 57 | 176 | 7.0 | 8.7 | 0.00 | 0.00 | 0.00 | 83 | 1019.0 |
| 20260506072001 | 57 | 157 | 11.3 | 13.0 | 0.00 | 0.00 | 0.00 | 79 | 1018.0 |
| 20260506071002 | 57 | 164 | 11.3 | 12.2 | 0.00 | 0.00 | 0.00 | 74 | 1018.0 |
| 20260506062002 | 56 | 158 | 5.2 | 8.7 | 0.00 | 0.00 | 0.00 | 72 | 1018.0 |
| 20260506061001 | 56 | 166 | 7.0 | 8.7 | 0.00 | 0.00 | 0.00 | 76 | 1018.0 |
| 20260506051001 | 54 | 157 | 1.7 | 2.6 | 0.00 | 0.00 | 0.00 | 70 | 1018.0 |
| 20260506045001 | 53 | 126 | 0.0 | 0.0 | 0.00 | 0.00 | 0.00 | 67 | 1018.0 |
| 20260506044002 | 52 | 135 | 0.0 | 0.0 | 0.00 | 0.00 | 0.00 | 66 | 1018.0 |
| 20260506043002 | 51 | 122 | 0.0 | 0.0 | 0.00 | 0.00 | 0.00 | 67 | 1018.0 |
| 20260506042001 | 51 | 125 | 1.7 | 1.7 | 0.00 | 0.00 | 0.00 | 70 | 1018.0 |
| 20260506041002 | 51 | 124 | 1.7 | 1.7 | 0.00 | 0.00 | 0.00 | 62 | 1017.0 |
| 20260506040001 | 47 | 98 | 1.7 | 1.7 | 0.00 | 0.00 | 0.00 | 66 | 1017.0 |
| 20260506035002 | 44 | 46 | 1.7 | 3.5 | 0.00 | 0.00 | 0.00 | 77 | 1017.0 |
| 20260506034001 | 43 | 121 | 1.7 | 1.7 | 0.00 | 0.00 | 0.00 | 83 | 1017.0 |
| 20260506033001 | 40 | 123 | 4.3 | 4.3 | 0.00 | 0.00 | 0.00 | 86 | 1017.0 |
| 20260506032002 | 40 | 139 | 3.5 | 4.3 | 0.00 | 0.00 | 0.00 | 85 | 1017.0 |
| 20260506031001 | 41 | 10 | 2.6 | 3.5 | 0.00 | 0.00 | 0.00 | 82 | 1017.0 |
| 20260506030002 | 41 | 7 | 1.7 | 1.7 | 0.00 | 0.00 | 0.00 | 83 | 1017.0 |
| 20260506025001 | 42 | 3 | 0.9 | 2.6 | 0.00 | 0.00 | 0.00 | 82 | 1017.0 |
| 20260506024002 | 42 | 1 | 0.9 | 1.7 | 0.00 | 0.00 | 0.00 | 82 | 1017.0 |
| 20260506023001 | 42 | 15 | 3.5 | 3.5 | 0.00 | 0.00 | 0.00 | 81 | 1017.0 |
| 20260506022002 | 42 | 0 | 0.9 | 1.7 | 0.00 | 0.00 | 0.00 | 80 | 1017.0 |
| 20260506021002 | 43 | 5 | 1.7 | 2.6 | 0.00 | 0.00 | 0.00 | 79 | 1017.0 |
| 20260506020001 | 44 | 351 | 2.6 | 2.6 | 0.00 | 0.00 | 0.00 | 77 | 1017.0 |
| 20260506015002 | 44 | 351 | 2.6 | 2.6 | 0.00 | 0.00 | 0.00 | 77 | 1017.0 |
| 20260506014001 | 44 | 349 | 1.7 | 1.7 | 0.00 | 0.00 | 0.00 | 78 | 1016.0 |
| 20260506013002 | 44 | 353 | 1.7 | 2.6 | 0.00 | 0.00 | 0.00 | 77 | 1017.0 |
| 20260506012001 | 44 | 351 | 2.6 | 3.5 | 0.00 | 0.00 | 0.00 | 78 | 1017.0 |
| 20260506011002 | 44 | 354 | 2.6 | 3.5 | 0.00 | 0.00 | 0.00 | 78 | 1017.0 |
| 20260506010002 | 44 | 359 | 1.7 | 1.7 | 0.00 | 0.00 | 0.00 | 79 | 1017.0 |
| 20260506005001 | 44 | 0 | 1.7 | 2.6 | 0.00 | 0.00 | 0.00 | 79 | 1017.0 |
| 20260506004002 | 44 | 349 | 2.6 | 3.5 | 0.00 | 0.00 | 0.00 | 80 | 1017.0 |
| 20260506003002 | 44 | 349 | 3.5 | 3.5 | 0.00 | 0.00 | 0.00 | 80 | 1017.0 |
| 20260506002001 | 44 | 349 | 2.6 | 2.6 | 0.00 | 0.00 | 0.00 | 80 | 1017.0 |
| 20260506001002 | 44 | 343 | 2.6 | 3.5 | 0.00 | 0.00 | 0.00 | 80 | 1017.0 |
| 20260506000001 | 44 | 344 | 1.7 | 2.6 | 0.00 | 0.00 | 0.00 | 80 | 1017.0 |
| 20260505235002 | 44 | 357 | 1.7 | 1.7 | 0.00 | 0.00 | 0.00 | 80 | 1017.0 |
| 20260505234001 | 44 | 329 | 1.7 | 1.7 | 0.00 | 0.00 | 0.00 | 80 | 1017.0 |
| 20260505233001 | 45 | 343 | 1.7 | 1.7 | 0.00 | 0.00 | 0.00 | 79 | 1017.0 |
| 20260505232002 | 46 | 338 | 1.7 | 3.5 | 0.00 | 0.00 | 0.00 | 78 | 1017.0 |
| 20260505231001 | 45 | 3 | 2.6 | 2.6 | 0.00 | 0.00 | 0.00 | 80 | 1017.0 |
| 20260505230002 | 45 | 32 | 0.0 | 0.9 | 0.00 | 0.00 | 0.00 | 82 | 1017.0 |
| 20260505225001 | 45 | 22 | 0.9 | 1.7 | 0.00 | 0.00 | 0.00 | 82 | 1017.0 |
| 20260505224002 | 45 | 359 | 0.0 | 0.9 | 0.00 | 0.00 | 0.00 | 82 | 1017.0 |
| 20260505223002 | 45 | 348 | 0.9 | 1.7 | 0.00 | 0.00 | 0.00 | 82 | 1017.0 |
| 20260505222001 | 46 | 355 | 2.6 | 2.6 | 0.00 | 0.00 | 0.00 | 83 | 1017.0 |
| 20260505221002 | 45 | 9 | 1.7 | 2.6 | 0.00 | 0.00 | 0.00 | 84 | 1017.0 |
| 20260505220002 | 45 | 4 | 1.7 | 1.7 | 0.00 | 0.00 | 0.00 | 85 | 1018.0 |
| 20260505215001 | 45 | 352 | 1.7 | 1.7 | 0.00 | 0.00 | 0.00 | 85 | 1018.0 |
| 20260505214002 | 46 | 356 | 1.7 | 1.7 | 0.00 | 0.00 | 0.00 | 85 | 1018.0 |
| 20260505213001 | 46 | 356 | 0.9 | 1.7 | 0.00 | 0.00 | 0.00 | 85 | 1018.0 |
| 20260505212002 | 46 | 8 | 1.7 | 1.7 | 0.00 | 0.00 | 0.00 | 85 | 1018.0 |
| 20260505211001 | 46 | 6 | 1.7 | 1.7 | 0.00 | 0.00 | 0.00 | 85 | 1018.0 |
| 20260505210001 | 46 | 12 | 0.9 | 1.7 | 0.00 | 0.00 | 0.00 | 85 | 1018.0 |
| 20260505205002 | 47 | 358 | 0.0 | 0.0 | 0.00 | 0.00 | 0.00 | 84 | 1018.0 |
| 20260505204001 | 47 | 6 | 0.9 | 0.9 | 0.00 | 0.00 | 0.00 | 84 | 1018.0 |
| 20260505203002 | 47 | 353 | 1.7 | 1.7 | 0.00 | 0.00 | 0.00 | 84 | 1018.0 |
| 20260505202001 | 47 | 6 | 0.9 | 1.7 | 0.00 | 0.00 | 0.00 | 84 | 1018.0 |
| 20260505201002 | 48 | 9 | 0.0 | 0.9 | 0.00 | 0.00 | 0.00 | 84 | 1018.0 |
| 20260505200002 | 48 | 353 | 0.9 | 1.7 | 0.00 | 0.00 | 0.00 | 85 | 1018.0 |
| 20260505195002 | 48 | 89 | 1.7 | 1.7 | 0.00 | 0.00 | 0.00 | 85 | 1018.0 |
| 20260505194002 | 49 | 45 | 1.7 | 2.6 | 0.00 | 0.00 | 0.00 | 85 | 1018.0 |
| 20260505193001 | 49 | 3 | 0.9 | 1.7 | 0.00 | 0.00 | 0.00 | 85 | 1018.0 |
| 20260505192002 | 50 | 33 | 0.9 | 0.9 | 0.00 | 0.00 | 0.00 | 86 | 1018.0 |
| 20260505191001 | 50 | 138 | 0.0 | 0.9 | 0.00 | 0.00 | 0.00 | 86 | 1018.0 |
| 20260505190003 | 50 | 148 | 1.7 | 1.7 | 0.00 | 0.00 | 0.00 | 86 | 1018.0 |
| 20260505185001 | 51 | 143 | 0.0 | 0.9 | 0.00 | 0.00 | 0.00 | 85 | 1018.0 |
| 20260505184002 | 51 | 132 | 1.7 | 1.7 | 0.00 | 0.00 | 0.00 | 85 | 1018.0 |
| 20260505183002 | 51 | 156 | 0.0 | 0.0 | 0.00 | 0.00 | 0.00 | 86 | 1018.0 |
| 20260505182001 | 51 | 145 | 0.9 | 1.7 | 0.00 | 0.00 | 0.00 | 86 | 1018.0 |